SB KEPS @ AMSAT $ORB09365.N 2Line Orbital Elements 09365.AMSAT
HR AMSAT ORBITAL ELEMENTS FOR AMATEUR SATELLITES IN NASA FORMAT FROM WA5QGD FORT WORTH,TX December 31, 2009 Send Subscribe/unsubscribe to KEPS at http://www.amsat.org/mailman/listinfo/keps BID: ORB09365.N
DECODE 2-LINE ELSETS WITH THE FOLLOWING KEY: 1 AAAAAU 00 0 0 BBBBB.BBBBBBBB .CCCCCCCC 00000-0 00000-0 0 DDDZ 2 AAAAA EEE.EEEE FFF.FFFF GGGGGGG HHH.HHHH III.IIII JJ.JJJJJJJJKKKKKZ KEY: A-CATALOGNUM B-EPOCHTIME C-DECAY D-ELSETNUM E-INCLINATION F-RAAN G-ECCENTRICITY H-ARGPERIGEE I-MNANOM J-MNMOTION K-ORBITNUM Z-CHECKSUM
TO ALL RADIO AMATEURS BT
AO-07 1 07530U 74089B 09364.57197685 -.00000027 00000-0 10000-3 0 06680 2 07530 101.4129 021.9224 0011839 244.6271 115.3573 12.53577289607325 FO-29 1 24278U 96046B 09364.64140698 .00000077 00000-0 11480-3 0 2138 2 24278 098.5226 211.9794 0350537 200.9494 157.6974 13.52947278660314 SO-33 1 25509U 98061B 09364.46297597 .00000054 00000-0 -38529-5 0 06209 2 25509 031.4345 022.6253 0354757 254.6178 101.4984 14.28275760583912 RS-22 1 27939U 03042A 09364.64738931 .00000027 00000-0 14013-4 0 09769 2 27939 097.9158 232.0305 0012781 229.7704 130.2387 14.63369441334304 VO-52 1 28650U 05017B 09364.77853179 -.00000168 00000-0 -14773-4 0 3990 2 28650 097.7184 059.5793 0028304 106.8638 253.5697 14.81660286251755 SO-67 1 35870U 09049F 09365.82028855 .00000370 00000-0 18732-4 0 3108 2 35870 097.3582 053.8439 0010273 288.5340 201.8154 15.22903423 15990 HO-68 1 36122U 09072B 09365.80218631 -.00000045 00000-0 00000 0 0 499 2 36122 100.4965 062.7636 0007713 359.4628 000.6474 13.16279923 2192 UO-11 1 14781U 84021B 09364.71991037 .00000249 00000-0 40307-4 0 1394 2 14781 098.0816 050.7337 0010103 064.3413 295.8830 14.79758105386892 AO-16 1 20439U 90005D 09365.82681778 .00000031 00000-0 27206-4 0 7861 2 20439 098.3078 325.5347 0010318 307.5198 052.5051 14.31844148 41438 LO-19 1 20442U 90005G 09364.87340273 .00000047 00000-0 32882-4 0 06964 2 20442 098.2707 331.1086 0011023 304.0034 056.0134 14.32077453041460 AO-27 1 22825U 93061C 09364.51154467 .00000059 00000-0 39875-4 0 04224 2 22825 098.4651 312.0175 0009065 050.3680 309.8287 14.29282645847958 IO-26 1 22826U 93061D 09364.88702468 .00000008 00000-0 19876-4 0 1551 2 22826 098.4573 313.0494 0009586 044.8842 315.3127 14.29536253848114 GO-32 1 25397U 98043D 09364.78919322 .00000125 00000-0 73379-4 0 759 2 25397 098.3184 016.4917 0002004 058.6726 301.4645 14.23169312596093 NO-44 1 26931U 01043C 09364.80784227 -.00000346 00000-0 -10278-3 0 03517 2 26931 067.0530 277.7861 0006950 265.2494 094.7809 14.29576259430682 SO-50 1 27607U 02058C 09364.87362599 .00000046 00000-0 29102-4 0 672 2 27607 064.5557 147.7253 0044002 150.8673 209.4889 14.71486295377616 CO-55 1 27844U 03031E 09364.63166874 .00000058 00000-0 47089-4 0 07471 2 27844 098.7107 011.0153 0009484 301.4527 058.5718 14.20675736337151 CO-57 1 27848U 03031J 09364.70733246 .00000037 00000-0 37585-4 0 6966 2 27848 098.7177 010.1636 0009041 305.0240 055.0087 14.20472537337121 AO-51 1 28375U 04025K 09365.55969138 .00000007 00000-0 15089-4 0 5681 2 28375 098.0532 003.6820 0083014 246.4054 112.8404 14.40664041289373 CO-56 1 28941U 06005C 09297.68475575 .14491492 29743-5 25760-3 0 5565 2 28941 098.0955 138.9518 0011688 319.8691 040.7485 16.46998778207909 GENESAT1 1 29655U 06058C 09364.45987078 .00020583 00000-0 15695-3 0 09106 2 29655 040.0228 029.0181 0004812 192.4725 167.5974 15.71605301173291 CP3 1 31129U 07012N 09365.71873012 .00000104 00000-0 34585-4 0 4379 2 31129 097.9643 049.0597 0103121 033.7062 327.0630 14.52195682143551 CO-65 1 32785U 08021C 09365.87999280 .00000342 00000-0 50226-4 0 5658 2 32785 097.9198 067.9450 0015925 107.1437 253.1556 14.81563629 90715 KKS-1 1 33493U 09002B 09365.75546399 .00000335 00000-0 50478-4 0 747 2 33493 098.0699 119.0316 0019364 325.9050 034.0930 14.80810979 50701 SOHLA-1 1 33496U 09002E 09365.85832477 -.00000079 00000-0 -50238-5 0 9882 2 33496 098.0485 112.2396 0006953 024.1817 335.9716 14.69461324 50303 NOAA-10 1 16969U 86073A 09365.55166629 -.00000117 00000-0 -29484-4 0 8999 2 16969 098.6743 030.9472 0012318 344.8647 015.2162 14.27402228211661 NOAA-11 1 19531U 88089A 09365.22145436 .00000205 00000-0 12847-3 0 9118 2 19531 098.7772 092.0761 0010826 268.1188 091.8740 14.14912062 97383 NOAA-12 1 21263U 91032A 09365.46990268 .00000023 00000-0 28799-4 0 3949 2 21263 098.7696 013.6154 0011638 296.4850 063.5139 14.25609058968509 MET-3/5 1 21655U 91056A 09364.90907451 .00000051 00000-0 10000-3 0 07052 2 21655 082.5576 067.5343 0014622 053.0209 307.2258 13.17023520883523 MET-2/21 1 22782U 93055A 09364.58375761 -.00000008 00000-0 -21238-4 0 6556 2 22782 082.5470 026.2078 0022948 152.2325 208.0073 13.83639847824768 OKEAN-4 1 23317U 94066A 09364.88618362 .00000124 00000-0 12331-4 0 01145 2 23317 082.5396 150.9324 0023816 077.1166 283.2698 14.82752024821513 NOAA-14 1 23455U 94089A 09365.41306004 -.00000059 00000-0 -75069-5 0 8885 2 23455 098.8936 082.2346 0009395 357.0596 003.0538 14.13775335773791 NOAA-15 1 25338U 98030A 09365.24735577 .00000054 00000-0 41790-4 0 2148 2 25338 098.6034 350.3255 0010289 199.9033 160.1759 14.24799966604837 RESURS 1 25394U 98043A 09365.71890027 -.00000033 00000-0 32466-5 0 3957 2 25394 098.3190 027.8122 0001816 023.8797 336.2473 14.24191445596518 FENGYUN1 1 25730U 99025A 09364.84001038 .00000575 00000-0 36117-3 0 09378 2 25730 098.7723 329.3029 0024412 018.1978 342.0059 14.08157606547995 OKEAN-0 1 25860U 99039A 09364.88568622 .00000065 00000-0 17327-4 0 08767 2 25860 097.8106 338.5196 0000533 063.8635 296.2625 14.73605444562116 NOAA-16 1 26536U 00055A 09365.21060233 .00000150 00000-0 10626-3 0 6937 2 26536 099.1778 013.6628 0011243 089.4637 270.7822 14.12543602478116 NOAA-17 1 27453U 02032A 09365.15039810 -.00000025 00000-0 74212-5 0 6927 2 27453 098.4586 057.1598 0010790 268.6180 091.3784 14.24118200390788 NOAA-18 1 28654U 05018A 09365.13969182 -.00000149 00000-0 -57955-4 0 1747 2 28654 098.9311 307.0613 0014468 164.2358 195.9272 14.11313304237738 NOAA-19 1 33591U 09005A 09365.09124009 -.00000006 00000-0 20554-4 0 3815 2 33591 098.7710 305.9458 0014877 047.7258 312.5149 14.11013667 46206 HUBBLE 1 20580U 90037B 09365.14879106 .00000353 00000-0 14235-4 0 4965 2 20580 028.4713 256.7658 0003382 213.8468 146.1910 15.00873205879477 ISS 1 25544U 98067A 10001.03465100 .00008979 00000-0 57784-4 0 2835 2 25544 051.6468 009.6669 0007899 132.8806 323.0995 15.77080624637130 CO-58 1 28895U 05043F 09364.64643636 .00000327 00000-0 77618-4 0 04770 2 28895 098.0364 249.4756 0018906 093.8290 266.5132 14.59830682222395 FALCON 1 30776U 07006E 09364.35076221 .00000481 00000-0 37671-4 0 07465 2 30776 035.4348 349.1235 0000529 227.6993 132.3678 15.03410163154636 MAST 1 31126U 07012K 09364.77760074 .00000103 00000-0 33653-4 0 07663 2 31126 097.9634 050.2933 0095151 030.2370 330.4288 14.53542615143597 CAPE1 1 31130U 07012P 09365.69888914 .00000120 00000-0 38145-4 0 7800 2 31130 097.9631 048.9196 0103332 033.9260 326.8474 14.52120368143359 COMPASS 1 32787U 08021E 09364.21737937 .00000511 00000-0 71367-4 0 05585 2 32787 097.9183 066.1305 0016940 114.6733 245.6255 14.81726149090474 AAUSAT2 1 32788U 08021F 09365.72164977 -.00000216 00000-0 -20534-4 0 5507 2 32788 097.9177 067.7094 0016335 109.8342 250.4633 14.81854926 90705 DO-64 1 32789U 08021G 09365.87631849 .00000449 00000-0 63371-4 0 5671 2 32789 097.9236 068.1711 0016710 108.4571 251.8488 14.81907352 90726 CO-66 1 32791U 08021J 09364.21629805 .00000335 00000-0 49421-4 0 05461 2 32791 097.9186 066.1584 0016973 111.3393 248.9676 14.81536965090437 RS-30 1 32953U 08025A 09364.74535546 .00000010 00000-0 00000 0 0 4881 2 32953 082.5022 134.4184 0019736 109.9321 250.3887 12.43003216 72812 TACSAT-3 1 35001U 09028A 09364.85883741 .00003096 00000-0 81265-4 0 01934 2 35001 040.4544 143.7890 0022442 188.7667 171.2757 15.39882732034668 PHARMSAT 1 35002U 09028B 09364.81459203 .00003110 00000-0 79614-4 0 1722 2 35002 040.4674 142.7862 0025404 192.4719 167.5470 15.40582584 34666 HAWKSAT1 1 35003U 09028C 09364.76882664 .00006274 00000-0 14794-3 0 01909 2 35003 040.4610 141.3592 0025013 198.1058 161.8868 15.41908647034680 CP6 1 35004U 09028D 09364.75791109 .00007309 00000-0 17015-3 0 1721 2 35004 040.4609 141.2846 0024204 198.3134 161.6815 15.42149128 34679 AEROCUB3 1 35005U 09028E 09364.78683145 .00013122 00000-0 30112-3 0 1784 2 35005 040.4720 141.7562 0023853 195.7055 164.3023 15.42121926 34673 DRAGNSAT 1 35690U 09038B 09365.43509443 .00053127 12242-4 16692-3 0 1631 2 35690 051.6371 001.0839 0003544 004.5183 355.5886 15.91903095 24419 POLLUX 1 35693U 09038E 09365.33495068 .00049614 00000-0 16181-3 0 1667 2 35693 051.6382 002.6913 0000645 357.5440 002.5183 15.90152568 24352 CASTOR 1 35694U 09038F 09365.34632482 .00018984 00000-0 82797-4 0 1452 2 35694 051.6412 005.0943 0001792 261.3449 098.7189 15.84793086 24321 METEOR-M 1 35865U 09049A 09364.80516855 .00000176 00000-0 10000-3 0 909 2 35865 098.7849 054.6077 0002978 119.0704 241.0704 14.21828349 14792 /EX